Погода в Загатале

Азербайджан     41°37′45″N   46°38′52″E
темп.,
°C
ветер,
м/с
пор.,
м/с
влажн.,
%
обл.,
%
осадки,
мм/ч
давл.,
гПа
погр.,
м
4 августа, ср
ср401:00+13св33615 0.0 101917
04:00+13ссв54575 0.0 101931
07:00+14св43585 0.0 101938
10:00+19юз32475 0.0 10181122
13:00+20юз53454 0.1 10181342
16:00+20юз324140 0.3 10171573
19:00+18юз225588 0.2 101871
22:00+16св3259100 0.6 101918
5 августа, чт
чт501:00+15св446999 0.9 102050
04:00+14св54677 1.1 102036
07:00+15св336332 0.0 101923
10:00+19юз325019 0.5 1018929
13:00+21юз434179 1.1 10172094
16:00+21юз42364 2.1 10161902
19:00+19ююз2252100 0.1 101628
22:00+17ссв444691 0.2 101838
6 августа, пт
пт601:00+14с225582 0.0 101815
04:00+14ссв444626 0.0 101723
07:00+15св54470 0.0 101738
10:00+20юз33370 0.0 10161299
13:00+21юз43360 0.0 10161834
16:00+22юз43350 0.0 10141859
19:00+20ююз22510 0.0 101448
22:00+14ссв22610 0.0 101515
7 августа, сб
сб701:00+14ссв33511 0.0 101517
04:00+15св554262 0.0 101536
07:00+16ссв43431 0.0 101425
10:00+21юз32341 0.0 1013930
13:00+23юз43345 0.0 10121192
16:00+23юз43355 0.0 10121450
19:00+21юз22450 0.0 101333
22:00+15сз115398 0.0 101611
8 августа, вс
вс801:00+15ссв3347100 0.0 101617
04:00+17св324315 0.0 101514
07:00+18св44455 0.0 101529
10:00+22юз323749 0.0 1015653
13:00+24юз43355 0.0 10141136
16:00+25юз433599 0.0 10141368
19:00+21юз225139 0.1 101526
22:00+17св33505 0.2 101719